Simultaneous Nadir Overpasses (SNOs) Predictions

Prediction of SNOs between GOES-15 and METOP-C Satellite Orbit:

Table of predicted SNOs for the next 14.0 days since TLE Epoch: 4/11/2025
Index Date Time (GOES-15) GOES-15 Lat,Lon METOP-C Lat,Lon Distance(km) Time Diff (sec)
1 04/12/2025 17:07:55 0.13, 61.31 0.97, 65.21 443.68 80
2 04/14/2025 05:26:45 -0.14, 61.37 0.05, 60.65 82.32 80
3 04/15/2025 05:08:45 -0.14, 61.38 -1.07, 65.65 486.18 80
4 04/16/2025 17:25:03 0.15, 61.35 0.06, 61.05 34.15 80
5 04/19/2025 05:25:53 -0.16, 61.44 -0.19, 61.49 6.64 80
6 04/21/2025 17:21:30 0.17, 61.43 0.27, 61.90 53.25 80
7 04/23/2025 05:40:19 -0.17, 61.51 0.78, 57.35 474.74 80
8 04/24/2025 05:22:18 -0.17, 61.53 -0.36, 62.34 92.85 80
9 04/25/2025 17:41:16 0.17, 61.51 -0.67, 57.75 427.90 80
